Location: ???????
(55.4362°N, 38.1183°E)
Time: 12:07:13
(UTC+00:00)

Cosmos 2219 Rocket - Pass Details

Date: 27 October 2021
Orbit: 826 x 848 km, 71.0° (Epoch: 01 December)

Event Time Altitude Azimuth Distance (km) Brightness Sun altitude
Exits shadow 22:53:34 14° 66° (ENE) 2,225 4.8 -43.3°
Drops below altitude 10° 22:54:31 10° 73° (ENE) 2,470 5.0 -43.2°
Sets 22:57:33 0° 89° (E) 3,406 5.7 -42.9°
